This is the latest recevied weather packets stored in our database for station/object DL7MAP-13. If no packets are shown the sender has not sent any weather packets the latest 1 day(s).
| Time | Temp. | Humidity | Pressure | Rain* | Wind** | Luminosity | Snow |
|---|---|---|---|---|---|---|---|
| 1778035388 | 11.11° C | 87% | 1000.1 hPa | - | - | - | - |
| 1778034487 | 11.67° C | 86% | 1000.4 hPa | - | - | - | - |
| 1778033587 | 11.67° C | 86% | 1000.8 hPa | - | - | - | - |
| 1778032687 | 11.67° C | 86% | 1000.8 hPa | - | - | - | - |
| 1778031787 | 11.67° C | 86% | 1000.7 hPa | - | - | - | - |
| 1778030887 | 11.67° C | 86% | 1000.8 hPa | - | - | - | - |
| 1778029987 | 11.67° C | 86% | 1001.3 hPa | - | - | - | - |
| 1778029087 | 11.67° C | 85% | 1001.2 hPa | - | - | - | - |
| 1778028187 | 11.67° C | 85% | 1001.6 hPa | - | - | - | - |
| 1778027287 | 11.67° C | 85% | 1001.5 hPa | - | - | - | - |
| 1778026387 | 12.22° C | 85% | 1001.4 hPa | - | - | - | - |
| 1778025487 | 12.22° C | 85% | 1002 hPa | - | - | - | - |
| 1778022787 | 12.22° C | 85% | 1002 hPa | - | - | - | - |
| 1778019187 | 12.78° C | 84% | 1002.8 hPa | - | - | - | - |
| 1778011987 | 13.33° C | 83% | - | - | - | - | - |
| 1778011087 | 13.89° C | 82% | 1002.3 hPa | - | - | - | - |
| 1778010187 | 14.44° C | 82% | 1002.4 hPa | - | - | - | - |
| 1778009287 | 14.44° C | 81% | 1002.6 hPa | - | - | - | - |
| 1778008387 | 15° C | 80% | 1002.4 hPa | - | - | - | - |
| 1778005687 | 16.11° C | 78% | 1001.9 hPa | - | - | - | - |
| 1778004787 | 16.11° C | 77% | 1002.5 hPa | - | - | - | - |
| 1778000287 | 17.78° C | 73% | 1002.1 hPa | - | - | - | - |
| 1777999387 | 18.33° C | 72% | 1002.6 hPa | - | - | - | - |
| 1777998487 | 17.78° C | 72% | 1002.5 hPa | - | - | - | - |
| 1777996687 | 17.78° C | 73% | 1002.5 hPa | - | - | - | - |
* Rain since midnight (hover to see other rain measurements)
** Current wind speed in m/s (hover to see current wind gust speed)